Lexington Weather

Lexington, Massachusetts, USA

78°F
8/3/2020 8:12am 
  • Lexington Conditions: Few Clouds
  • Temperature: 78.3°F / 25.7°CWarmer 1.8°F than last hour.
  • Dew Point: 72.3°FDecreased 2.0°Fsince last hour.
  • Relative Humidity: 82%Decreased 11.0% since last hour.
  • Wind: Wind from SE SE 5 mph, 10-min avg: 3 mph, gust: 11 mph
  • Barometer: 29.86 inRising 0.02  inHg/hr Rising Slowly
  • Visibility: 10 miles
  • Rain Today: 0.00 in
  •   

Regional Weather Roundup
for Boston / Norton, MA

        
000
ASUS41 KBOX 311805
RWRBOX

REGIONAL WEATHER ROUNDUP
NATIONAL WEATHER SERVICE BOSTON/NORTON MA
200 PM EDT FRI JUL 31 2020

NOTE:  "FAIR" INDICATES FEW OR NO CLOUDS BELOW 12,000 FEET WITH NO 
SIGNIFICANT WEATHER AND/OR OBSTRUCTIONS TO VISIBILITY.

MAZALL-311900-
EASTERN MASSACHUSETTS
  
CITY           SKY/WX    TMP DP  RH WIND       PRES   REMARKS
BOSTON         MOSUNNY   77  64  64 E8        29.81F                  
6HR MIN TEMP:  72; 6HR MAX TEMP:  77;                                

BEVERLY        SUNNY     81  63  54 SE8       29.80F                  
LAWRENCE       SUNNY     83  62  49 E6        29.82F                  
BEDFORD        MOSUNNY   86  60  41 NE5       29.79F                  
BLUE HILL      NOT AVBL                                               
NORWOOD        SUNNY     86  63  45 E7        29.79F                  
MARSHFIELD     PTSUNNY   79  68  69 VRB7      29.80F                  
PLYMOUTH       PTSUNNY   82  66  58 VRB6      29.80F                  
TAUNTON        MOSUNNY   83  67  58 CALM      29.78F                  
NEW BEDFORD    CLOUDY    81  68  64 VRB3      29.79F                  
$$

MAZALL-311900-
CAPE COD AND THE ISLANDS
  
CITY           SKY/WX    TMP DP  RH WIND       PRES   REMARKS
FALMOUTH       PTSUNNY   77  68  73 CALM      29.80F                  
HYANNIS        CLOUDY    79  69  71 N6        29.79F                  
CHATHAM        CLOUDY    77  67  71 VRB5      29.80F                  
PROVINCETOWN   CLOUDY    74  68  81 N5        29.81F                  
NANTUCKET      LGT RAIN  75  68  78 W3        29.81F                  
MARTHAS VNYRD  CLOUDY    74  70  87 S6        29.81F                  
$$
 
MAZALL-311900-
CENTRAL AND WESTERN MASSACHUSETTS
  
CITY           SKY/WX    TMP DP  RH WIND       PRES   REMARKS
WORCESTER      MOSUNNY   81  54  39 VRB3      29.84F                  
6HR MIN TEMP:  69; 6HR MAX TEMP:  85;                                

FITCHBURG      PTSUNNY   84  56  38 N5        29.81F                  
ORANGE         SUNNY     85  56  37 NW7       29.82F                  
SPRINGFIELD    MOSUNNY   85  56  36 NE6       29.79F                  
WESTFIELD      MOSUNNY   86  59  39 NE8       29.80F                  
NORTH ADAMS    SUNNY     82  61  48 MISG      29.82F                  
PITTSFIELD     SUNNY     82  61  48 W7        29.84F                  
$$
 
RIZALL-311900-
RHODE ISLAND
  
CITY           SKY/WX    TMP DP  RH WIND       PRES   REMARKS
PROVIDENCE     PTSUNNY   81  66  60 VRB3      29.80F                  
6HR MIN TEMP:  70; 6HR MAX TEMP:  81; 6HR PCP: TRACE;                

NEWPORT        CLOUDY    78  68  71 W5        29.80F                  
BLOCK ISLAND   CLOUDY    72  68  87 W5        29.82F                  
SMITHFIELD     PTSUNNY   81  67  62 NE5       29.82F                  
WESTERLY       CLOUDY    77  67  71 SW5       29.81F                  
$$
 
CTZALL-311900-
CONNECTICUT
  
CITY           SKY/WX    TMP DP  RH WIND       PRES   REMARKS
BRADLEY INTL   PTSUNNY   87  59  38 N9        29.79F                  
6HR MIN TEMP:  71; 6HR MAX TEMP:  88;                                

HARTFORD       MOSUNNY   83  66  56 S7        29.79F                  
BRIDGEPORT     CLOUDY    76  69  79 CALM      29.81F                  
DANBURY        MOSUNNY   77  63  61 E6        29.83F                  
GROTON         CLOUDY    74  69  85 S5        29.80F                  
NEW HAVEN      CLOUDY    79  68  69 SE5       29.81F                  
CHESTER        PTSUNNY   77  68  73 CALM      29.82F                  
MERIDEN        PTSUNNY   80  64  58 S5        29.80F                  
WILLIMANTIC    PTSUNNY   80  65  59 S6        29.81F                  
OXFORD         PTSUNNY   77  65  66 VRB3      29.84F                  
$$

MEZ002-015-021-024-NHZ003-005-008-011-012-014-VTZ005-008-311900-
NORTHERN NEW ENGLAND
  
CITY           SKY/WX    TMP DP  RH WIND       PRES   REMARKS
PORTLAND ME    MOSUNNY   82  63  52 VRB7      29.81F                  
6HR MIN TEMP:  74; 6HR MAX TEMP:  85;                                

BANGOR ME      MOSUNNY   80  61  52 MISG      29.80F                  
CONCORD NH     MOSUNNY   86  56  35 W7        29.81F                  
MANCHESTER NH  MOSUNNY   86  56  35 E7        29.79F                  
NASHUA NH      PTSUNNY   86  59  39 VRB3      29.80F                  
PORTSMOUTH NH  MOSUNNY   80  58  46 E10       29.80F                  
JAFFREY NH     SUNNY     82  54  37 E3        29.85F                  
KEENE NH       MOSUNNY   82  59  45 VRB5      29.82F                  
BURLINGTON VT  MOSUNNY   82  55  39 VRB7      29.85F                  
MT. WASHINGTON NOT AVBL                                               
$$

NYZ052-076-311900-
EASTERN NEW YORK
  
CITY           SKY/WX    TMP DP  RH WIND       PRES   REMARKS
ALBANY         MOSUNNY   79  62  56 CALM      29.83F                  
6HR MIN TEMP:  64; 6HR MAX TEMP:  80;                                

NEW YORK CITY  PTSUNNY   77  66  68 S3        29.81F                  
6HR MIN TEMP:  73; 6HR MAX TEMP:  77; 6HR PCP: TRACE;                

$$
 
ANZALL-311900-
MARINE OBSERVATIONS
  
STATION/POSITION TIME  TEMP    WIND        PRES    VSBY  WAVE
                       AIR SEA DIR/SP/G                  HT/PER
                 (UTC) (F)     (DEG/KT/KT) (MB)    (MI)  (FT/S)
BOSTON BUOY      1750   72 74   30/  6/  6 1008.4F         1/10
BUZZARDS BAY     1700             CALM     1010.6F
NANTUCKET SOUND  1740      76  290/  4/  4 1008.2F
MASS BAY-STELLWA NOT AVBL
ISLE OF SHOALS   1700   71     120/  5/  6 1009.7F
S OF BLOCK IS    1726      76                N/A           2/ 6
$$

......................KEY.........................
  SKY/WX - SKY CONDITION/PRESENT WEATHER
  TMP    - TEMPERATURE IN FAHRENHEIT
  DWPT   - DEWPOINT IN FAHRENHEIT
  RH     - RELATIVE HUMIDITY IN PERCENT
  WIND   - DIRECTION AND SPEED IN MPH
  PRES   - MEAN SEA LEVEL PRESSURE IN INCHES OF HG
  WCI    - WIND CHILL INDEX
  VSB    - VISIBILITY IN MILES
  HX     - HEAT INDEX
  TC     - TEMPERATURE IN CELSIUS
  VRB    - VARIABLE WIND DIRECTION
  N/A    - NOT AVAILABLE
  
      

Other recent Regional Weather Roundups

Mon Aug 3, 7:04am

Mon Aug 3, 6:04am

Mon Aug 3, 5:04am

Mon Aug 3, 4:04am

Mon Aug 3, 3:04am

Mon Aug 3, 2:04am

Mon Aug 3, 1:04am

Mon Aug 3, 12:05am

Sun Aug 2, 11:04pm

Sun Aug 2, 10:04pm

Sun Aug 2, 9:04pm

Sun Aug 2, 8:04pm

Sun Aug 2, 7:04pm

Sun Aug 2, 6:04pm

Sun Aug 2, 5:04pm

Sun Aug 2, 4:05pm

Sun Aug 2, 3:04pm

Sun Aug 2, 2:05pm

Sun Aug 2, 1:04pm

Sun Aug 2, 12:04pm

Sun Aug 2, 11:04am

Sun Aug 2, 10:04am

Sun Aug 2, 9:05am

Sun Aug 2, 8:05am

Sun Aug 2, 7:04am

Sun Aug 2, 6:04am

Sun Aug 2, 5:04am

Sun Aug 2, 4:05am

Sun Aug 2, 3:04am

Sun Aug 2, 2:04am

Sun Aug 2, 1:04am

Sun Aug 2, 12:05am

Sat Aug 1, 11:04pm

Sat Aug 1, 10:04pm

Sat Aug 1, 9:04pm

Sat Aug 1, 8:05pm

Sat Aug 1, 7:04pm

Sat Aug 1, 6:04pm

Sat Aug 1, 5:05pm

Sat Aug 1, 4:05pm

Sat Aug 1, 3:04pm

Sat Aug 1, 2:04pm

Sat Aug 1, 1:04pm

Sat Aug 1, 12:04pm

Sat Aug 1, 11:05am

Sat Aug 1, 10:05am

Sat Aug 1, 9:04am

Sat Aug 1, 8:04am

Sat Aug 1, 7:04am

Sat Aug 1, 6:04am

Sat Aug 1, 5:04am

Sat Aug 1, 4:05am

Sat Aug 1, 3:04am

Sat Aug 1, 2:04am

Sat Aug 1, 1:04am

Sat Aug 1, 12:05am

Fri Jul 31, 11:05pm

Fri Jul 31, 10:04pm

Fri Jul 31, 9:04pm

Fri Jul 31, 8:05pm

Fri Jul 31, 7:05pm

Fri Jul 31, 6:04pm

Fri Jul 31, 5:04pm

Fri Jul 31, 4:05pm

Fri Jul 31, 3:04pm

Fri Jul 31, 1:04pm

Fri Jul 31, 12:04pm

Fri Jul 31, 11:04am

Fri Jul 31, 10:04am

Fri Jul 31, 9:04am

Fri Jul 31, 8:04am

Fri Jul 31, 7:04am

Fri Jul 31, 6:04am

Fri Jul 31, 5:04am

Fri Jul 31, 4:04am

Fri Jul 31, 3:04am

Fri Jul 31, 2:04am

Fri Jul 31, 1:05am

Fri Jul 31, 12:04am

Thu Jul 30, 11:04pm

Thu Jul 30, 10:04pm

Thu Jul 30, 9:04pm

Thu Jul 30, 8:04pm

Thu Jul 30, 7:05pm

Thu Jul 30, 6:04pm

Thu Jul 30, 5:04pm

Thu Jul 30, 4:05pm

Thu Jul 30, 3:04pm

Thu Jul 30, 2:05pm

Thu Jul 30, 1:04pm

Thu Jul 30, 12:04pm

Thu Jul 30, 11:04am

Thu Jul 30, 10:05am

Thu Jul 30, 9:04am

Thu Jul 30, 8:04am

Thu Jul 30, 7:04am

Thu Jul 30, 6:04am

Thu Jul 30, 5:04am

Thu Jul 30, 4:04am

Thu Jul 30, 3:04am

Thu Jul 30, 2:04am

Thu Jul 30, 1:04am

Thu Jul 30, 12:04am

Wed Jul 29, 11:04pm

Wed Jul 29, 10:04pm

Wed Jul 29, 9:04pm

Wed Jul 29, 8:04pm

Wed Jul 29, 7:05pm

Wed Jul 29, 6:05pm

Wed Jul 29, 5:04pm

Wed Jul 29, 4:04pm

Wed Jul 29, 3:04pm

Wed Jul 29, 2:04pm

Wed Jul 29, 1:05pm

Wed Jul 29, 12:05pm

Wed Jul 29, 11:04am

Wed Jul 29, 10:04am

Wed Jul 29, 9:04am

Wed Jul 29, 8:04am

Wed Jul 29, 7:04am

Wed Jul 29, 6:04am

Wed Jul 29, 5:04am

Wed Jul 29, 4:04am

Wed Jul 29, 3:04am

Wed Jul 29, 2:04am

Wed Jul 29, 1:04am

Wed Jul 29, 12:05am

Tue Jul 28, 11:05pm

Tue Jul 28, 10:05pm

Tue Jul 28, 9:04pm

Tue Jul 28, 8:04pm

Tue Jul 28, 7:04pm

Tue Jul 28, 6:04pm

Tue Jul 28, 5:04pm

Tue Jul 28, 4:05pm

Tue Jul 28, 3:05pm

Tue Jul 28, 2:04pm

Tue Jul 28, 1:05pm

Tue Jul 28, 12:04pm

Tue Jul 28, 11:04am

Tue Jul 28, 10:04am

Tue Jul 28, 9:04am

Tue Jul 28, 8:04am

Tue Jul 28, 7:04am

Tue Jul 28, 6:04am

Tue Jul 28, 5:04am

Tue Jul 28, 4:04am

Tue Jul 28, 3:04am

Tue Jul 28, 2:04am

Tue Jul 28, 1:04am

Tue Jul 28, 12:05am

Mon Jul 27, 11:04pm

Mon Jul 27, 10:05pm

Mon Jul 27, 9:05pm

Mon Jul 27, 8:04pm

Mon Jul 27, 7:04pm

Mon Jul 27, 6:05pm

Mon Jul 27, 5:05pm

Mon Jul 27, 4:04pm

Mon Jul 27, 3:04pm

Mon Jul 27, 2:04pm

Mon Jul 27, 1:04pm

Mon Jul 27, 12:04pm

Mon Jul 27, 11:04am

Mon Jul 27, 10:04am

Mon Jul 27, 9:04am

Mon Jul 27, 8:04am

Meta data:

ID: 54c51875-e793-46dc-9a81-9c869db5d059
Link: https://api.weather.gov/products/54c51875-e793-46dc-9a81-9c869db5d059